sat.trackr.live / text

‹ back to catalog

2026-027D

NORAD 67749 · 2026-027D

PAYLOAD ACTIVE UNKNOWN

§ Identity

Operator
Country
PRC
Launch date
2026-02-12
Launch site
SCSLA
Launch vehicle
Mass (kg)
RCS (m²)

External: N2YO · Heavens-Above · Gunter

§ Orbital elements

Epoch: 2026-05-24T22:02:08.158272Z

Period
94.77 min
Inclination
97.5029°
Eccentricity
0.0008787
Mean motion
15.19462172 rev/d
Perigee alt
501.4 km
Apogee alt
513.5 km
Semi-major
6,885.6 km
B*
3.1511e-4
RAAN
273.3436°
Arg perigee
308.8696°
Mean anomaly
51.1754°
Rev number
1,538

§ Raw data

2026-027D1 67749U 26027D   26144.91814998  .00006620  00000+0  31511-3 0  99932 67749  97.5029 273.3436 0008787 308.8696  51.1754 15.19462172 15383

JSON: /api/v1/satellites/67749 · /tle

For live sub-satellite position, see the globe view (requires WebGL).

§ Visibility from observer

Set your observer location to see the next 7 days of passes ≥ 10°. The values pass through the URL so the page stays shareable.

No JS? Fill the form by hand. The geolocation button needs JavaScript.